$Date,$Time,DM0201B,DM0203B,DM0205B,DM0207B,DM0209B
11/04/98,00:00:01,27,308,-19,476,953
11/04/98,00:05:01,53,296,-19,476,953
11/04/98,00:10:01,53,296,-20,482,953
11/04/98,00:15:01,41,287,-20,486,953
11/04/98,00:20:01,89,276,-20,486,953
11/04/98,00:25:01,73,296,-20,489,953
11/04/98,00:30:01,35,294,-19,489,953
11/04/98,00:35:01,57,293,-19,491,953
11/04/98,00:40:01,62,301,-19,490,953
11/04/98,00:45:01,61,301,-19,492,953
11/04/98,00:50:01,101,315,-19,489,953
11/04/98,00:55:01,113,326,-20,491,953
11/04/98,01:00:01,81,329,-20,491,953
11/04/98,01:05:01,69,327,-20,492,953
11/04/98,01:10:01,74,338,-19,492,953
11/04/98,01:15:01,79,344,-20,492,953
11/04/98,01:20:01,69,328,-19,494,953
11/04/98,01:25:01,68,336,-20,494,953
11/04/98,01:30:01,93,322,-19,494,953
11/04/98,01:35:01,72,341,-19,494,953
11/04/98,01:40:01,61,319,-19,495,953
11/04/98,01:45:01,78,342,-19,495,953
11/04/98,01:50:01,70,355,-19,486,953
11/04/98,01:55:01,96,341,-19,484,953
11/04/98,02:00:01,97,344,-19,490,953
11/04/98,02:05:01,88,337,-19,488,953
11/04/98,02:10:01,100,339,-19,486,953
11/04/98,02:15:01,105,339,-18,486,953
11/04/98,02:20:01,91,332,-17,484,953
11/04/98,02:25:01,112,327,-16,482,953
11/04/98,02:30:01,105,323,-16,480,953
11/04/98,02:35:01,76,343,-16,478,953
11/04/98,02:40:01,102,341,-16,474,953
11/04/98,02:45:01,88,342,-15,472,953
11/04/98,02:50:01,104,311,-15,470,953
11/04/98,02:55:01,78,328,-15,468,953
11/04/98,03:00:01,88,337,-15,464,953
11/04/98,03:05:01,84,335,-15,462,953
11/04/98,03:10:01,80,323,-14,458,953
11/04/98,03:15:01,95,332,-14,456,953
11/04/98,03:20:01,95,337,-14,452,953
11/04/98,03:25:01,82,297,-14,450,951
11/04/98,03:30:01,149,318,-15,444,951
11/04/98,03:35:01,120,313,-15,442,951
11/04/98,03:40:01,146,301,-16,437,951
11/04/98,03:45:01,133,310,-16,433,951
11/04/98,03:50:01,114,320,-16,431,951
11/04/98,03:55:01,85,337,-15,427,951
11/04/98,04:00:01,104,318,-15,423,951
11/04/98,04:05:01,111,335,-15,421,951
11/04/98,04:10:01,54,289,-14,417,951
11/04/98,04:15:01,71,328,-13,413,951
11/04/98,04:20:01,99,338,-13,409,951
11/04/98,04:25:01,75,338,-13,407,951
11/04/98,04:30:01,105,340,-13,402,951
11/04/98,04:35:01,93,320,-13,397,951
11/04/98,04:40:01,116,305,-15,400,951
11/04/98,04:45:01,93,309,-14,397,951
11/04/98,04:50:01,95,307,-15,406,951
11/04/98,04:55:01,100,306,-15,406,951
11/04/98,05:00:01,76,327,-14,386,951
11/04/98,05:05:01,64,331,-14,375,951
11/04/98,05:10:01,92,307,-14,369,951
11/04/98,05:15:01,79,314,-14,363,951
11/04/98,05:20:01,121,294,-15,359,951
11/04/98,05:25:01,113,306,-15,357,951
11/04/98,05:30:01,73,321,-14,351,951
11/04/98,05:35:01,131,303,-15,344,951
11/04/98,05:40:01,112,303,-15,338,951
11/04/98,05:45:01,127,291,-15,328,951
11/04/98,05:50:01,133,307,-15,322,951
11/04/98,05:55:01,49,280,-13,291,951
11/04/98,06:00:01,103,301,-14,261,951
11/04/98,06:05:01,81,290,-14,259,951
11/04/98,06:10:01,99,236,-13,273,951
11/04/98,06:15:01,104,273,-13,288,951
11/04/98,06:20:01,76,254,-13,296,951
11/04/98,06:25:01,65,276,-12,294,951
11/04/98,06:30:01,59,243,-11,289,951
11/04/98,06:35:01,64,255,-11,285,951
11/04/98,06:40:01,60,270,-11,277,951
11/04/98,06:45:01,50,193,-10,273,951
11/04/98,06:50:01,48,135,-9,267,951
11/04/98,06:55:01,109,193,-10,263,951
11/04/98,07:00:01,67,273,-11,257,951
11/04/98,07:05:01,100,244,-10,251,951
11/04/98,07:10:01,140,198,-10,247,951
11/04/98,07:15:01,198,188,-12,241,951
11/04/98,07:20:01,150,201,-11,236,951
11/04/98,07:25:01,341,173,-11,230,951
11/04/98,07:30:01,375,174,-12,226,951
11/04/98,07:35:01,425,173,-13,221,951
11/04/98,07:40:01,450,163,-14,215,951
11/04/98,07:45:01,435,174,-15,211,951
11/04/98,07:50:01,406,177,-15,205,949
11/04/98,07:55:01,489,165,-16,199,949
11/04/98,08:00:01,420,179,-16,197,949
11/04/98,08:05:01,449,165,-16,191,949
11/04/98,08:10:01,448,165,-16,189,949
11/04/98,08:15:01,552,165,-15,155,949
11/04/98,08:20:01,487,170,-15,180,949
11/04/98,08:25:01,526,170,-16,84,949
11/04/98,08:30:01,502,170,-16,177,949
11/04/98,08:35:01,516,170,-15,137,949
11/04/98,08:40:01,485,166,-16,55,949
11/04/98,08:45:01,477,166,-17,49,949
11/04/98,08:50:01,486,178,-17,102,949
11/04/98,08:55:01,406,182,-16,114,949
11/04/98,09:00:01,440,182,-17,87,949
11/04/98,09:05:01,391,172,-16,101,949
11/04/98,09:10:01,339,182,-17,38,949
11/04/98,09:15:01,407,167,-17,42,949
11/04/98,09:20:01,385,167,-17,44,949
11/04/98,09:25:01,459,167,-17,50,949
11/04/98,09:30:01,427,169,-17,60,949
11/04/98,09:35:01,394,169,-17,60,949
11/04/98,09:40:01,444,169,-16,62,949
11/04/98,09:45:01,430,169,-16,66,949
11/04/98,09:50:01,384,168,-16,70,949
11/04/98,09:55:01,341,160,-16,96,949
11/04/98,10:00:01,329,170,-16,80,949
11/04/98,10:05:01,289,198,-16,80,949
11/04/98,10:10:01,284,187,-16,75,949
11/04/98,10:15:01,291,213,-16,76,949
11/04/98,10:20:01,224,206,-17,84,949
11/04/98,10:25:01,201,192,-17,95,949
11/04/98,10:30:01,203,228,-17,96,949
11/04/98,10:35:01,164,212,-17,88,949
11/04/98,10:40:01,335,188,-16,80,949
11/04/98,10:45:01,372,175,-16,89,949
11/04/98,10:50:01,403,175,-16,90,949
11/04/98,10:55:01,478,175,-15,78,949
11/04/98,11:00:01,477,177,-15,64,949
11/04/98,11:05:01,429,167,-16,48,949
11/04/98,11:10:01,518,167,-16,48,949
11/04/98,11:15:01,451,167,-16,44,949
11/04/98,11:20:01,438,167,-16,42,949
11/04/98,11:25:01,379,167,-16,42,949
11/04/98,11:30:01,452,167,-16,40,949
11/04/98,11:35:01,502,167,-16,42,949
11/04/98,11:40:01,472,165,-16,44,947
11/04/98,11:45:01,446,170,-16,48,949
11/04/98,11:50:01,593,170,-16,50,949
11/04/98,11:55:01,540,189,-16,50,949
11/04/98,12:00:01,522,191,-16,54,949
11/04/98,12:05:01,464,184,-16,60,947
11/04/98,12:10:01,618,173,-16,64,947
11/04/98,12:15:01,418,194,-16,62,949
11/04/98,12:20:01,299,209,-16,58,949
11/04/98,12:25:01,433,197,-16,62,949
11/04/98,12:30:01,273,191,-16,70,949
11/04/98,12:35:01,373,175,-16,78,949
11/04/98,12:40:01,360,186,-16,82,949
11/04/98,12:45:01,357,185,-16,86,949
11/04/98,12:50:01,396,175,-16,86,949
11/04/98,12:55:01,483,175,-15,88,947
11/04/98,13:00:01,468,175,-16,90,947
11/04/98,13:05:01,418,175,-16,92,947
11/04/98,13:10:01,472,175,-16,92,947
11/04/98,13:15:01,478,175,-15,92,947
11/04/98,13:20:01,356,188,-15,94,947
11/04/98,13:25:01,334,187,-15,94,947
11/04/98,13:30:01,384,189,-15,96,947
11/04/98,13:35:01,253,188,-15,98,947
11/04/98,13:40:01,135,242,-16,96,947
11/04/98,13:45:01,126,234,-17,98,947
11/04/98,13:50:01,108,236,-17,98,947
11/04/98,13:55:01,155,215,-16,100,947
11/04/98,14:00:01,191,239,-16,100,947
11/04/98,14:05:01,243,196,-15,102,949
11/04/98,14:10:01,236,194,-15,102,949
11/04/98,14:15:01,325,178,-15,102,949
11/04/98,14:20:01,329,192,-15,100,949
11/04/98,14:25:01,326,179,-15,100,949
11/04/98,14:30:01,688,168,-15,93,947
11/04/98,14:35:01,568,180,-14,93,947
11/04/98,14:40:01,606,165,-15,93,947
11/04/98,14:45:01,465,180,-14,77,947
11/04/98,14:50:01,587,161,-15,84,947
11/04/98,14:55:01,572,166,-15,95,947
11/04/98,15:00:01,452,188,-15,88,947
11/04/98,15:05:01,536,181,-15,81,947
11/04/98,15:10:01,623,171,-15,66,947
11/04/98,15:15:01,499,181,-16,69,947
11/04/98,15:20:01,646,185,-15,75,947
11/04/98,15:25:01,623,172,-16,79,947
11/04/98,15:30:01,560,173,-16,67,945
11/04/98,15:35:01,709,173,-16,73,945
11/04/98,15:40:01,671,173,-16,83,945
11/04/98,15:45:01,745,185,-15,87,947
11/04/98,15:50:01,694,185,-15,89,947
11/04/98,15:55:01,662,186,-15,91,947
11/04/98,16:00:01,690,186,-15,93,947
11/04/98,16:05:01,725,186,-15,101,947
11/04/98,16:10:01,748,176,-15,109,947
11/04/98,16:15:01,694,176,-16,113,947
11/04/98,16:20:01,690,176,-16,113,945
11/04/98,16:25:01,733,176,-16,117,945
11/04/98,16:30:01,738,176,-16,126,945
11/04/98,16:35:01,669,176,-16,138,945
11/04/98,16:40:01,702,166,-15,154,945
11/04/98,16:45:01,693,166,-15,146,945
11/04/98,16:50:01,735,166,-15,172,945
11/04/98,16:55:01,643,176,-15,172,945
11/04/98,17:00:01,728,177,-15,188,945
11/04/98,17:05:01,684,177,-15,214,945
11/04/98,17:10:01,696,177,-15,252,945
11/04/98,17:15:01,734,177,-15,285,945
11/04/98,17:20:01,752,177,-15,292,947
11/04/98,17:25:01,706,177,-15,293,947
11/04/98,17:30:01,752,187,-14,289,947
11/04/98,17:35:01,686,187,-15,288,947
11/04/98,17:40:01,682,177,-15,303,947
11/04/98,17:45:01,696,177,-15,309,945
11/04/98,17:50:01,731,177,-14,312,945
11/04/98,17:55:01,794,177,-14,231,945
11/04/98,18:00:01,763,177,-15,276,945
11/04/98,18:05:01,752,177,-14,296,945
11/04/98,18:10:01,750,177,-14,302,945
11/04/98,18:15:01,692,167,-14,317,945
11/04/98,18:20:01,713,167,-14,324,945
11/04/98,18:25:01,711,168,-14,294,945
11/04/98,18:30:01,656,168,-14,320,945
11/04/98,18:35:01,638,179,-14,347,945
11/04/98,18:40:01,620,179,-14,319,945
11/04/98,18:45:01,605,179,-14,347,945
11/04/98,18:50:01,668,179,-14,349,945
11/04/98,18:55:01,642,179,-13,350,945
11/04/98,19:00:01,672,179,-13,342,945
11/04/98,19:05:01,707,179,-13,343,945
11/04/98,19:10:01,618,179,-13,343,945
11/04/98,19:15:01,637,179,-13,345,945
11/04/98,19:20:01,672,190,-13,347,945
11/04/98,19:25:01,689,176,-13,341,945
11/04/98,19:30:01,710,187,-13,339,945
11/04/98,19:35:01,738,187,-13,341,945
11/04/98,19:40:01,668,187,-13,342,945
11/04/98,19:45:01,719,185,-13,338,945
11/04/98,19:50:01,668,185,-13,341,945
11/04/98,19:55:01,479,185,-13,339,945
11/04/98,20:00:01,592,185,-13,348,945
11/04/98,20:05:01,700,185,-13,125,945
11/04/98,20:10:01,631,185,-13,112,945
11/04/98,20:15:01,625,185,-13,112,945
11/04/98,20:20:01,621,188,-13,106,945
11/04/98,20:25:01,644,188,-13,114,945
11/04/98,20:30:01,694,188,-13,110,945
11/04/98,20:35:01,708,189,-13,106,945
11/04/98,20:40:01,632,190,-13,102,945
11/04/98,20:45:01,622,192,-13,104,945
11/04/98,20:50:01,607,192,-13,102,945
11/04/98,20:55:01,607,189,-13,102,945
11/04/98,21:00:01,451,189,-13,108,945
11/04/98,21:05:01,665,189,-13,102,945
11/04/98,21:10:01,599,189,-13,98,945
11/04/98,21:15:01,603,189,-13,100,945
11/04/98,21:20:01,619,189,-13,100,945
11/04/98,21:25:01,693,189,-13,94,945
11/04/98,21:30:01,626,176,-13,90,945
11/04/98,21:35:01,612,187,-13,90,945
11/04/98,21:40:01,592,184,-13,94,945
11/04/98,21:45:01,753,184,-13,102,945
11/04/98,21:50:01,670,184,-13,108,945
11/04/98,21:55:01,569,184,-13,112,945
11/04/98,22:00:01,617,184,-13,114,945
11/04/98,22:05:01,650,184,-13,114,945
11/04/98,22:10:01,646,184,-13,121,945
11/04/98,22:15:01,589,184,-13,141,945
11/04/98,22:20:01,547,184,-13,153,947
11/04/98,22:25:01,641,174,-13,151,947
11/04/98,22:30:01,645,174,-13,147,947
11/04/98,22:35:01,590,174,-13,134,945
11/04/98,22:40:01,561,174,-13,126,947
11/04/98,22:45:01,565,175,-13,130,945
11/04/98,22:50:01,564,175,-13,134,945
11/04/98,22:55:01,703,175,-13,140,945
11/04/98,23:00:01,587,165,-13,140,945
11/04/98,23:05:01,620,168,-13,144,945
11/04/98,23:10:01,512,168,-13,150,945
11/04/98,23:15:01,503,177,-13,158,947
11/04/98,23:20:01,512,177,-13,166,947
11/04/98,23:25:01,499,177,-13,168,947
11/04/98,23:30:01,497,181,-13,162,947
11/04/98,23:35:01,493,181,-13,162,947
11/04/98,23:40:01,468,181,-13,162,947
11/04/98,23:45:01,426,181,-13,168,947
11/04/98,23:50:01,372,181,-13,183,947
11/04/98,23:55:01,470,179,-13,196,947
11/05/98,00:00:01,477,176,-13,209,947
